Year,Month,Day,Hour,Minute,Value (Times are PST for temperature in C)
2016,07,21,00,00,13.80
2016,07,21,00,01,13.70
2016,07,21,00,02,13.70
2016,07,21,00,03,13.70
2016,07,21,00,04,13.70
2016,07,21,00,05,13.70
2016,07,21,00,06,13.70
2016,07,21,00,07,13.70
2016,07,21,00,08,13.60
2016,07,21,00,09,13.60
2016,07,21,00,10,13.60
2016,07,21,00,11,13.60
2016,07,21,00,12,13.60
2016,07,21,00,13,13.60
2016,07,21,00,14,13.60
2016,07,21,00,15,13.60
2016,07,21,00,16,13.60
2016,07,21,00,17,13.60
2016,07,21,00,18,13.60
2016,07,21,00,19,13.60
2016,07,21,00,20,13.60
2016,07,21,00,21,13.60
2016,07,21,00,22,13.50
2016,07,21,00,23,13.50
2016,07,21,00,24,13.50
2016,07,21,00,25,13.50
2016,07,21,00,26,13.50
2016,07,21,00,27,13.50
2016,07,21,00,28,13.50
2016,07,21,00,29,13.50
2016,07,21,00,30,13.50
2016,07,21,00,31,13.50
2016,07,21,00,32,13.50
2016,07,21,00,33,13.50
2016,07,21,00,34,13.40
2016,07,21,00,35,13.40
2016,07,21,00,36,13.40
2016,07,21,00,37,13.40
2016,07,21,00,38,13.40
2016,07,21,00,39,13.40
2016,07,21,00,40,13.40
2016,07,21,00,41,13.50
2016,07,21,00,42,13.50
2016,07,21,00,43,13.50
2016,07,21,00,44,13.50
2016,07,21,00,45,13.50
2016,07,21,00,46,13.50
2016,07,21,00,47,13.50
2016,07,21,00,48,13.50
2016,07,21,00,49,13.50
2016,07,21,00,50,13.50
2016,07,21,00,51,13.40
2016,07,21,00,52,13.40
2016,07,21,00,53,13.40
2016,07,21,00,54,13.40
2016,07,21,00,55,13.40
2016,07,21,00,56,13.40
2016,07,21,00,57,13.30
2016,07,21,00,58,13.30
2016,07,21,00,59,13.30
2016,07,21,01,00,13.30
2016,07,21,01,01,13.30
2016,07,21,01,02,13.30
2016,07,21,01,03,13.30
2016,07,21,01,04,13.30
2016,07,21,01,05,13.30
2016,07,21,01,06,13.30
2016,07,21,01,07,13.30
2016,07,21,01,08,13.30
2016,07,21,01,09,13.30
2016,07,21,01,10,13.30
2016,07,21,01,11,13.30
2016,07,21,01,12,13.20
2016,07,21,01,13,13.20
2016,07,21,01,14,13.20
2016,07,21,01,15,13.20
2016,07,21,01,16,13.20
2016,07,21,01,17,13.20
2016,07,21,01,18,13.20
2016,07,21,01,19,13.20
2016,07,21,01,20,13.20
2016,07,21,01,21,13.20
2016,07,21,01,22,13.20
2016,07,21,01,23,13.20
2016,07,21,01,24,13.20
2016,07,21,01,25,13.20
2016,07,21,01,26,13.20
2016,07,21,01,27,13.20
2016,07,21,01,28,13.20
2016,07,21,01,29,13.20
2016,07,21,01,30,13.20
2016,07,21,01,31,13.20
2016,07,21,01,32,13.20
2016,07,21,01,33,13.20
2016,07,21,01,34,13.20
2016,07,21,01,35,13.20
2016,07,21,01,36,13.20
2016,07,21,01,37,13.20
2016,07,21,01,38,13.20
2016,07,21,01,39,13.20
2016,07,21,01,40,13.20
2016,07,21,01,41,13.20
2016,07,21,01,42,13.20
2016,07,21,01,43,13.20
2016,07,21,01,44,13.20
2016,07,21,01,45,13.20
2016,07,21,01,46,13.20
2016,07,21,01,47,13.20
2016,07,21,01,48,13.20
2016,07,21,01,49,13.20
2016,07,21,01,50,13.20
2016,07,21,01,51,13.20
2016,07,21,01,52,13.10
2016,07,21,01,53,13.10
2016,07,21,01,54,13.10
2016,07,21,01,55,13.10
2016,07,21,01,56,13.10
2016,07,21,01,57,13.10
2016,07,21,01,58,13.10
2016,07,21,01,59,13.10
2016,07,21,02,00,13.10
2016,07,21,02,01,13.10
2016,07,21,02,02,13.10
2016,07,21,02,03,13.10
2016,07,21,02,04,13.10
2016,07,21,02,05,13.10
2016,07,21,02,06,13.10
2016,07,21,02,07,13.00
2016,07,21,02,08,13.00
2016,07,21,02,09,13.00
2016,07,21,02,10,13.00
2016,07,21,02,11,13.00
2016,07,21,02,12,13.00
2016,07,21,02,13,13.00
2016,07,21,02,14,13.00
2016,07,21,02,15,13.00
2016,07,21,02,16,13.00
2016,07,21,02,17,13.00
2016,07,21,02,18,13.10
2016,07,21,02,19,13.10
2016,07,21,02,20,13.10
2016,07,21,02,21,13.10
2016,07,21,02,22,13.10
2016,07,21,02,23,13.10
2016,07,21,02,24,13.10
2016,07,21,02,25,13.10
2016,07,21,02,26,13.10
2016,07,21,02,27,13.10
2016,07,21,02,28,13.10
2016,07,21,02,29,13.10
2016,07,21,02,30,13.10
2016,07,21,02,31,13.10
2016,07,21,02,32,13.10
2016,07,21,02,33,13.10
2016,07,21,02,34,13.10
2016,07,21,02,35,13.10
2016,07,21,02,36,13.10
2016,07,21,02,37,13.10
2016,07,21,02,38,13.10
2016,07,21,02,39,13.10
2016,07,21,02,40,13.10
2016,07,21,02,41,13.10
2016,07,21,02,42,13.10
2016,07,21,02,43,13.00
2016,07,21,02,44,13.00
2016,07,21,02,45,13.00
2016,07,21,02,46,13.00
2016,07,21,02,47,13.00
2016,07,21,02,48,12.90
2016,07,21,02,49,12.90
2016,07,21,02,50,12.90
2016,07,21,02,51,12.90
2016,07,21,02,52,12.90
2016,07,21,02,53,12.90
2016,07,21,02,54,12.80
2016,07,21,02,55,12.80
2016,07,21,02,56,12.80
2016,07,21,02,57,12.80
2016,07,21,02,58,12.80
2016,07,21,02,59,12.80
2016,07,21,03,00,12.80
2016,07,21,03,01,12.80
2016,07,21,03,02,12.80
2016,07,21,03,03,12.80
2016,07,21,03,04,12.80
2016,07,21,03,05,12.80
2016,07,21,03,06,12.80
2016,07,21,03,07,12.80
2016,07,21,03,08,12.80
2016,07,21,03,09,12.80
2016,07,21,03,10,12.80
2016,07,21,03,11,12.80
2016,07,21,03,12,12.80
2016,07,21,03,13,12.80
2016,07,21,03,14,12.80
2016,07,21,03,15,12.80
2016,07,21,03,16,12.80
2016,07,21,03,17,12.80
2016,07,21,03,18,12.80
2016,07,21,03,19,12.80
2016,07,21,03,20,12.80
2016,07,21,03,21,12.80
2016,07,21,03,22,12.80
2016,07,21,03,23,12.80
2016,07,21,03,24,12.80
2016,07,21,03,25,12.80
2016,07,21,03,26,12.70
2016,07,21,03,27,12.70
2016,07,21,03,28,12.70
2016,07,21,03,29,12.70
2016,07,21,03,30,12.70
2016,07,21,03,31,12.70
2016,07,21,03,32,12.70
2016,07,21,03,33,12.70
2016,07,21,03,34,12.70
2016,07,21,03,35,12.70
2016,07,21,03,36,12.70
2016,07,21,03,37,12.70
2016,07,21,03,38,12.70
2016,07,21,03,39,12.70
2016,07,21,03,40,12.60
2016,07,21,03,41,12.60
2016,07,21,03,42,12.60
2016,07,21,03,43,12.60
2016,07,21,03,44,12.60
2016,07,21,03,45,12.60
2016,07,21,03,46,12.60
2016,07,21,03,47,12.60
2016,07,21,03,48,12.60
2016,07,21,03,49,12.60
2016,07,21,03,50,12.60
2016,07,21,03,51,12.60
2016,07,21,03,52,12.60
2016,07,21,03,53,12.60
2016,07,21,03,54,12.60
2016,07,21,03,55,12.60
2016,07,21,03,56,12.60
2016,07,21,03,57,12.60
2016,07,21,03,58,12.60
2016,07,21,03,59,12.60
2016,07,21,04,00,12.60
2016,07,21,04,01,12.60
2016,07,21,04,02,12.60
2016,07,21,04,03,12.60
2016,07,21,04,04,12.50
2016,07,21,04,05,12.50
2016,07,21,04,06,12.60
2016,07,21,04,07,12.50
2016,07,21,04,08,12.60
2016,07,21,04,09,12.60
2016,07,21,04,10,12.60
2016,07,21,04,11,12.60
2016,07,21,04,12,12.50
2016,07,21,04,13,12.50
2016,07,21,04,14,12.50
2016,07,21,04,15,12.50
2016,07,21,04,16,12.50
2016,07,21,04,17,12.50
2016,07,21,04,18,12.50
2016,07,21,04,19,12.50
2016,07,21,04,20,12.50
2016,07,21,04,21,12.50
2016,07,21,04,22,12.50
2016,07,21,04,23,12.50
2016,07,21,04,24,12.50
2016,07,21,04,25,12.50
2016,07,21,04,26,12.50
2016,07,21,04,27,12.50
2016,07,21,04,28,12.50
2016,07,21,04,29,12.50
2016,07,21,04,30,12.50
2016,07,21,04,31,12.50
2016,07,21,04,32,12.50
2016,07,21,04,33,12.50
2016,07,21,04,34,12.50
2016,07,21,04,35,12.50
2016,07,21,04,36,12.50
2016,07,21,04,37,12.50
2016,07,21,04,38,12.50
2016,07,21,04,39,12.50
2016,07,21,04,40,12.50
2016,07,21,04,41,12.50
2016,07,21,04,42,12.50
2016,07,21,04,43,12.50
2016,07,21,04,44,12.50
2016,07,21,04,45,12.50
2016,07,21,04,46,12.50
2016,07,21,04,47,12.50
2016,07,21,04,48,12.50
2016,07,21,04,49,12.50
2016,07,21,04,50,12.50
2016,07,21,04,51,12.50
2016,07,21,04,52,12.50
2016,07,21,04,53,12.50
2016,07,21,04,54,12.40
2016,07,21,04,55,12.50
2016,07,21,04,56,12.40
2016,07,21,04,57,12.40
2016,07,21,04,58,12.40
2016,07,21,04,59,12.40
2016,07,21,05,00,12.50
2016,07,21,05,01,12.50
2016,07,21,05,02,12.50
2016,07,21,05,03,12.40
2016,07,21,05,04,12.40
2016,07,21,05,05,12.40
2016,07,21,05,06,12.50
2016,07,21,05,07,12.50
2016,07,21,05,08,12.40
2016,07,21,05,09,12.40
2016,07,21,05,10,12.40
2016,07,21,05,11,12.40
2016,07,21,05,12,12.40
2016,07,21,05,13,12.40
2016,07,21,05,14,12.40
2016,07,21,05,15,12.40
2016,07,21,05,16,12.40
2016,07,21,05,17,12.40
2016,07,21,05,18,12.40
2016,07,21,05,19,12.30
2016,07,21,05,20,12.30
2016,07,21,05,21,12.30
2016,07,21,05,22,12.30
2016,07,21,05,23,12.30
2016,07,21,05,24,12.30
2016,07,21,05,25,12.30
2016,07,21,05,26,12.30
2016,07,21,05,27,12.30
2016,07,21,05,28,12.30
2016,07,21,05,29,12.30
2016,07,21,05,30,12.30
2016,07,21,05,31,12.30
2016,07,21,05,32,12.30
2016,07,21,05,33,12.30
2016,07,21,05,34,12.30
2016,07,21,05,35,12.30
2016,07,21,05,36,12.30
2016,07,21,05,37,12.30
2016,07,21,05,38,12.30
2016,07,21,05,39,12.30
2016,07,21,05,40,12.30
2016,07,21,05,41,12.30
2016,07,21,05,42,12.30
2016,07,21,05,43,12.30
2016,07,21,05,44,12.30
2016,07,21,05,45,12.30
2016,07,21,05,46,12.30
2016,07,21,05,47,12.30
2016,07,21,05,48,12.40
2016,07,21,05,49,12.40
2016,07,21,05,50,12.40
2016,07,21,05,51,12.40
2016,07,21,05,52,12.40
2016,07,21,05,53,12.40
2016,07,21,05,54,12.40
2016,07,21,05,55,12.40
2016,07,21,05,56,12.40
2016,07,21,05,57,12.40
2016,07,21,05,58,12.40
2016,07,21,05,59,12.40
2016,07,21,06,00,12.50
2016,07,21,06,01,12.50
2016,07,21,06,02,12.50
2016,07,21,06,03,12.50
2016,07,21,06,04,12.50
2016,07,21,06,05,12.50
2016,07,21,06,06,12.60
2016,07,21,06,07,12.60
2016,07,21,06,08,12.60
2016,07,21,06,09,12.60
2016,07,21,06,10,12.60
2016,07,21,06,11,12.60
2016,07,21,06,12,12.60
2016,07,21,06,13,12.60
2016,07,21,06,14,12.60
2016,07,21,06,15,12.60
2016,07,21,06,16,12.60
2016,07,21,06,17,12.60
2016,07,21,06,18,12.60
2016,07,21,06,19,12.60
2016,07,21,06,20,12.70
2016,07,21,06,21,12.70
2016,07,21,06,22,12.80
2016,07,21,06,23,12.80
2016,07,21,06,24,12.80
2016,07,21,06,25,12.80
2016,07,21,06,26,12.90
2016,07,21,06,27,12.90
2016,07,21,06,28,12.90
2016,07,21,06,29,12.90
2016,07,21,06,30,13.00
2016,07,21,06,31,13.00
2016,07,21,06,32,13.00
2016,07,21,06,33,13.10
2016,07,21,06,34,13.10
2016,07,21,06,35,13.10
2016,07,21,06,36,13.20
2016,07,21,06,37,13.20
2016,07,21,06,38,13.30
2016,07,21,06,39,13.30
2016,07,21,06,40,13.40
2016,07,21,06,41,13.40
2016,07,21,06,42,13.40
2016,07,21,06,43,13.50
2016,07,21,06,44,13.50
2016,07,21,06,45,13.60
2016,07,21,06,46,13.60
2016,07,21,06,47,13.70
2016,07,21,06,48,13.80
2016,07,21,06,49,13.80
2016,07,21,06,50,13.90
2016,07,21,06,51,13.90
2016,07,21,06,52,14.00
2016,07,21,06,53,14.00
2016,07,21,06,54,14.00
2016,07,21,06,55,14.10
2016,07,21,06,56,14.10
2016,07,21,06,57,14.20
2016,07,21,06,58,14.20
2016,07,21,06,59,14.20
2016,07,21,07,00,14.30
2016,07,21,07,01,14.30
2016,07,21,07,02,14.40
2016,07,21,07,03,14.40
2016,07,21,07,04,14.40
2016,07,21,07,05,14.50
2016,07,21,07,06,14.50
2016,07,21,07,07,14.60
2016,07,21,07,08,14.60
2016,07,21,07,09,14.60
2016,07,21,07,10,14.70
2016,07,21,07,11,14.70
2016,07,21,07,12,14.70
2016,07,21,07,13,14.80
2016,07,21,07,14,14.80
2016,07,21,07,15,14.90
2016,07,21,07,16,14.90
2016,07,21,07,17,15.00
2016,07,21,07,18,15.10
2016,07,21,07,19,15.10
2016,07,21,07,20,15.20
2016,07,21,07,21,15.20
2016,07,21,07,22,15.20
2016,07,21,07,23,15.30
2016,07,21,07,24,15.30
2016,07,21,07,25,15.40
2016,07,21,07,26,15.40
2016,07,21,07,27,15.40
2016,07,21,07,28,15.40
2016,07,21,07,29,15.50
2016,07,21,07,30,15.50
2016,07,21,07,31,15.60
2016,07,21,07,32,15.60
2016,07,21,07,33,15.60
2016,07,21,07,34,15.70
2016,07,21,07,35,15.70
2016,07,21,07,36,15.70
2016,07,21,07,37,15.80
2016,07,21,07,38,15.80
2016,07,21,07,39,15.80
2016,07,21,07,40,15.80
2016,07,21,07,41,15.90
2016,07,21,07,42,15.90
2016,07,21,07,43,16.00
2016,07,21,07,44,16.00
2016,07,21,07,45,16.10
2016,07,21,07,46,16.10
2016,07,21,07,47,16.20
2016,07,21,07,48,16.20
2016,07,21,07,49,16.30
2016,07,21,07,50,16.30
2016,07,21,07,51,16.40
2016,07,21,07,52,16.40
2016,07,21,07,53,16.50
2016,07,21,07,54,16.60
2016,07,21,07,55,16.60
2016,07,21,07,56,16.70
2016,07,21,07,57,16.80
2016,07,21,07,58,16.80
2016,07,21,07,59,16.80
2016,07,21,08,00,16.90
2016,07,21,08,01,16.90
2016,07,21,08,02,17.00
2016,07,21,08,03,17.00
2016,07,21,08,04,17.10
2016,07,21,08,05,17.10
2016,07,21,08,06,17.20
2016,07,21,08,07,17.20
2016,07,21,08,08,17.20
2016,07,21,08,09,17.20
2016,07,21,08,10,17.30
2016,07,21,08,11,17.30
2016,07,21,08,12,17.30
2016,07,21,08,13,17.30
2016,07,21,08,14,17.30
2016,07,21,08,15,17.30
2016,07,21,08,16,17.30
2016,07,21,08,17,17.40
2016,07,21,08,18,17.40
2016,07,21,08,19,17.50
2016,07,21,08,20,17.50
2016,07,21,08,21,17.60
2016,07,21,08,22,17.60
2016,07,21,08,23,17.60
2016,07,21,08,24,17.70
2016,07,21,08,25,17.70
2016,07,21,08,26,17.80
2016,07,21,08,27,17.80
2016,07,21,08,28,17.90
2016,07,21,08,29,17.90
2016,07,21,08,30,17.90
2016,07,21,08,31,18.00
2016,07,21,08,32,18.00
2016,07,21,08,33,18.00
2016,07,21,08,34,18.10
2016,07,21,08,35,18.10
2016,07,21,08,36,18.10
2016,07,21,08,37,18.10
2016,07,21,08,38,18.20
2016,07,21,08,39,18.30
2016,07,21,08,40,18.30
2016,07,21,08,41,18.40
2016,07,21,08,42,18.40
2016,07,21,08,43,18.50
2016,07,21,08,44,18.60
2016,07,21,08,45,18.60
2016,07,21,08,46,18.60
2016,07,21,08,47,18.80
2016,07,21,08,48,18.80
2016,07,21,08,49,18.90
2016,07,21,08,50,19.00
2016,07,21,08,51,19.00
2016,07,21,08,52,19.00
2016,07,21,08,53,19.10
2016,07,21,08,54,19.10
2016,07,21,08,55,19.20
2016,07,21,08,56,19.20
2016,07,21,08,57,19.30
2016,07,21,08,58,19.30
2016,07,21,08,59,19.40
2016,07,21,09,00,19.50
2016,07,21,09,01,19.60
2016,07,21,09,02,19.60
2016,07,21,09,03,19.70
2016,07,21,09,04,19.70
2016,07,21,09,05,19.70
2016,07,21,09,06,19.80
2016,07,21,09,07,19.90
2016,07,21,09,08,20.00
2016,07,21,09,09,20.00
2016,07,21,09,10,20.10
2016,07,21,09,11,20.10
2016,07,21,09,12,20.20
2016,07,21,09,13,20.20
2016,07,21,09,14,20.20
2016,07,21,09,15,20.30
2016,07,21,09,16,20.30
2016,07,21,09,17,20.40
2016,07,21,09,18,20.50
2016,07,21,09,19,20.50
2016,07,21,09,20,20.60
2016,07,21,09,21,20.70
2016,07,21,09,22,20.70
2016,07,21,09,23,20.70
2016,07,21,09,24,20.80
2016,07,21,09,25,20.80
2016,07,21,09,26,20.90
2016,07,21,09,27,20.90
2016,07,21,09,28,20.90
2016,07,21,09,29,20.90
2016,07,21,09,30,21.00
2016,07,21,09,31,21.00
2016,07,21,09,32,21.10
2016,07,21,09,33,21.10
2016,07,21,09,34,21.10
2016,07,21,09,35,21.20
2016,07,21,09,36,21.20
2016,07,21,09,37,21.20
2016,07,21,09,38,21.20
2016,07,21,09,39,21.20
2016,07,21,09,40,21.20
2016,07,21,09,41,21.20
2016,07,21,09,42,21.20
2016,07,21,09,43,21.20
2016,07,21,09,44,21.20
2016,07,21,09,45,21.20
2016,07,21,09,46,21.20
2016,07,21,09,47,21.20
2016,07,21,09,48,21.30
2016,07,21,09,49,21.30
2016,07,21,09,50,21.30
2016,07,21,09,51,21.30
2016,07,21,09,52,21.30
2016,07,21,09,53,21.30
2016,07,21,09,54,21.30
2016,07,21,09,55,21.40
2016,07,21,09,56,21.40
2016,07,21,09,57,21.50
2016,07,21,09,58,21.50
2016,07,21,09,59,21.50
2016,07,21,10,00,21.50
2016,07,21,10,01,21.40
2016,07,21,10,02,21.50
2016,07,21,10,03,21.40
2016,07,21,10,04,21.50
2016,07,21,10,05,21.50
2016,07,21,10,06,21.50
2016,07,21,10,07,21.50
2016,07,21,10,08,21.50
2016,07,21,10,09,21.60
2016,07,21,10,10,21.60
2016,07,21,10,11,21.70
2016,07,21,10,12,21.80
2016,07,21,10,13,21.80
2016,07,21,10,14,21.80
2016,07,21,10,15,21.80
2016,07,21,10,16,21.80
2016,07,21,10,17,21.80
2016,07,21,10,18,21.80
2016,07,21,10,19,21.80
2016,07,21,10,20,21.70
2016,07,21,10,21,21.70
2016,07,21,10,22,21.70
2016,07,21,10,23,21.70
2016,07,21,10,24,21.70
2016,07,21,10,25,21.70
2016,07,21,10,26,21.70
2016,07,21,10,27,21.70
2016,07,21,10,28,21.80
2016,07,21,10,29,21.80
2016,07,21,10,30,21.80
2016,07,21,10,31,21.90
2016,07,21,10,32,21.90
2016,07,21,10,33,21.90
2016,07,21,10,34,21.90
2016,07,21,10,35,22.00
2016,07,21,10,36,22.10
2016,07,21,10,37,22.20
2016,07,21,10,38,22.30
2016,07,21,10,39,22.30
2016,07,21,10,40,22.30
2016,07,21,10,41,22.30
2016,07,21,10,42,22.40
2016,07,21,10,43,22.50
2016,07,21,10,44,22.70
2016,07,21,10,45,22.70
2016,07,21,10,46,22.70
2016,07,21,10,47,22.80
2016,07,21,10,48,22.70
2016,07,21,10,49,22.70
2016,07,21,10,50,22.60
2016,07,21,10,51,22.60
2016,07,21,10,52,22.70
2016,07,21,10,53,22.80
2016,07,21,10,54,22.80
2016,07,21,10,55,22.80
2016,07,21,10,56,22.80
2016,07,21,10,57,22.80
2016,07,21,10,58,22.80
2016,07,21,10,59,22.80
2016,07,21,11,00,22.80
2016,07,21,11,01,22.90
2016,07,21,11,02,22.90
2016,07,21,11,03,23.00
2016,07,21,11,04,23.00
2016,07,21,11,05,22.90
2016,07,21,11,06,22.80
2016,07,21,11,07,22.80
2016,07,21,11,08,22.80
2016,07,21,11,09,22.80
2016,07,21,11,10,22.90
2016,07,21,11,11,22.90
2016,07,21,11,12,22.90
2016,07,21,11,13,23.00
2016,07,21,11,14,23.00
2016,07,21,11,15,23.00
2016,07,21,11,16,23.00
2016,07,21,11,17,23.00
2016,07,21,11,18,23.10
2016,07,21,11,19,23.20
2016,07,21,11,20,23.30
2016,07,21,11,21,23.20
2016,07,21,11,22,23.30
2016,07,21,11,23,23.30
2016,07,21,11,24,23.30
2016,07,21,11,25,23.30
2016,07,21,11,26,23.20
2016,07,21,11,27,23.20
2016,07,21,11,28,23.20
2016,07,21,11,29,23.30
2016,07,21,11,30,23.40
2016,07,21,11,31,23.40
2016,07,21,11,32,23.40
2016,07,21,11,33,23.40
2016,07,21,11,34,23.40
2016,07,21,11,35,23.50
2016,07,21,11,36,23.60
2016,07,21,11,37,23.70
2016,07,21,11,38,23.70
2016,07,21,11,39,23.70
2016,07,21,11,40,23.70
2016,07,21,11,41,23.80
2016,07,21,11,42,23.80
2016,07,21,11,43,23.90
2016,07,21,11,44,23.90
2016,07,21,11,45,23.90
2016,07,21,11,46,23.90
2016,07,21,11,47,23.90
2016,07,21,11,48,23.70
2016,07,21,11,49,23.60
2016,07,21,11,50,23.50
2016,07,21,11,51,23.40
2016,07,21,11,52,23.50
2016,07,21,11,53,23.60
2016,07,21,11,54,23.60
2016,07,21,11,55,23.70
2016,07,21,11,56,23.70
2016,07,21,11,57,23.70
2016,07,21,11,58,23.60
2016,07,21,11,59,23.60
2016,07,21,12,00,23.70
2016,07,21,12,01,23.60
2016,07,21,12,02,23.60
2016,07,21,12,03,23.70
2016,07,21,12,04,23.80
2016,07,21,12,05,23.90
2016,07,21,12,06,24.00
2016,07,21,12,07,24.00
2016,07,21,12,08,24.00
2016,07,21,12,09,24.00
2016,07,21,12,10,24.00
2016,07,21,12,11,23.90
2016,07,21,12,12,23.90
2016,07,21,12,13,23.90
2016,07,21,12,14,23.90
2016,07,21,12,15,23.90
2016,07,21,12,16,23.90
2016,07,21,12,17,23.90
2016,07,21,12,18,23.90
2016,07,21,12,19,23.90
2016,07,21,12,20,23.80
2016,07,21,12,21,23.90
2016,07,21,12,22,24.00
2016,07,21,12,23,24.10
2016,07,21,12,24,24.20
2016,07,21,12,25,24.30
2016,07,21,12,26,24.50
2016,07,21,12,27,24.60
2016,07,21,12,28,24.60
2016,07,21,12,29,24.80
2016,07,21,12,30,24.80
2016,07,21,12,31,24.90
2016,07,21,12,32,25.00
2016,07,21,12,33,25.00
2016,07,21,12,34,25.00
2016,07,21,12,35,25.10
2016,07,21,12,36,25.10
2016,07,21,12,37,25.10
2016,07,21,12,38,25.10
2016,07,21,12,39,25.10
2016,07,21,12,40,25.10
2016,07,21,12,41,25.00
2016,07,21,12,42,24.90
2016,07,21,12,43,24.80
2016,07,21,12,44,24.80
2016,07,21,12,45,24.80
2016,07,21,12,46,24.70
2016,07,21,12,47,24.60
2016,07,21,12,48,24.60
2016,07,21,12,49,24.60
2016,07,21,12,50,24.80
2016,07,21,12,51,24.90
2016,07,21,12,52,25.10
2016,07,21,12,53,25.20
2016,07,21,12,54,25.30
2016,07,21,12,55,25.30
2016,07,21,12,56,25.30
2016,07,21,12,57,25.30
2016,07,21,12,58,25.30
2016,07,21,12,59,25.30
2016,07,21,13,00,25.20
2016,07,21,13,01,25.20
2016,07,21,13,02,25.20
2016,07,21,13,03,25.30
2016,07,21,13,04,25.40
2016,07,21,13,05,25.50
2016,07,21,13,06,25.60
2016,07,21,13,07,25.60
2016,07,21,13,08,25.60
2016,07,21,13,09,25.60
2016,07,21,13,10,25.60
2016,07,21,13,11,25.60
2016,07,21,13,12,25.50
2016,07,21,13,13,25.50
2016,07,21,13,14,25.50
2016,07,21,13,15,25.60
2016,07,21,13,16,25.60
2016,07,21,13,17,25.60
2016,07,21,13,18,25.60
2016,07,21,13,19,25.60
2016,07,21,13,20,25.50
2016,07,21,13,21,25.30
2016,07,21,13,22,25.20
2016,07,21,13,23,25.20
2016,07,21,13,24,25.20
2016,07,21,13,25,25.10
2016,07,21,13,26,25.10
2016,07,21,13,27,25.10
2016,07,21,13,28,25.10
2016,07,21,13,29,25.10
2016,07,21,13,30,25.20
2016,07,21,13,31,25.20
2016,07,21,13,32,25.30
2016,07,21,13,33,25.30
2016,07,21,13,34,25.20
2016,07,21,13,35,25.20
2016,07,21,13,36,25.30
2016,07,21,13,37,25.30
2016,07,21,13,38,25.40
2016,07,21,13,39,25.50
2016,07,21,13,40,25.60
2016,07,21,13,41,25.70
2016,07,21,13,42,25.70
2016,07,21,13,43,25.60
2016,07,21,13,44,25.60
2016,07,21,13,45,25.70
2016,07,21,13,46,25.70
2016,07,21,13,47,25.60
2016,07,21,13,48,25.60
2016,07,21,13,49,25.50
2016,07,21,13,50,25.40
2016,07,21,13,51,25.40
2016,07,21,13,52,25.40
2016,07,21,13,53,25.40
2016,07,21,13,54,25.40
2016,07,21,13,55,25.50
2016,07,21,13,56,25.60
2016,07,21,13,57,25.60
2016,07,21,13,58,25.70
2016,07,21,13,59,25.70
2016,07,21,14,00,25.70
2016,07,21,14,01,25.80
2016,07,21,14,02,25.80
2016,07,21,14,03,25.80
2016,07,21,14,04,25.80
2016,07,21,14,05,25.70
2016,07,21,14,06,25.70
2016,07,21,14,07,25.60
2016,07,21,14,08,25.60
2016,07,21,14,09,25.60
2016,07,21,14,10,25.60
2016,07,21,14,11,25.70
2016,07,21,14,12,25.70
2016,07,21,14,13,25.80
2016,07,21,14,14,25.80
2016,07,21,14,15,25.90
2016,07,21,14,16,25.90
2016,07,21,14,17,25.90
2016,07,21,14,18,25.90
2016,07,21,14,19,25.90
2016,07,21,14,20,25.90
2016,07,21,14,21,25.80
2016,07,21,14,22,25.80
2016,07,21,14,23,25.80
2016,07,21,14,24,25.80
2016,07,21,14,25,25.80
2016,07,21,14,26,25.90
2016,07,21,14,27,25.90
2016,07,21,14,28,25.90
2016,07,21,14,29,25.80
2016,07,21,14,30,25.80
2016,07,21,14,31,25.80
2016,07,21,14,32,25.90
2016,07,21,14,33,26.00
2016,07,21,14,34,26.00
2016,07,21,14,35,26.10
2016,07,21,14,36,26.10
2016,07,21,14,37,26.20
2016,07,21,14,38,26.30
2016,07,21,14,39,26.40
2016,07,21,14,40,26.20
2016,07,21,14,41,26.10
2016,07,21,14,42,26.10
2016,07,21,14,43,26.10
2016,07,21,14,44,26.10
2016,07,21,14,45,26.10
2016,07,21,14,46,26.10
2016,07,21,14,47,26.10
2016,07,21,14,48,26.20
2016,07,21,14,49,26.20
2016,07,21,14,50,26.30
2016,07,21,14,51,26.50
2016,07,21,14,52,26.60
2016,07,21,14,53,26.70
2016,07,21,14,54,26.80
2016,07,21,14,55,26.80
2016,07,21,14,56,26.70
2016,07,21,14,57,26.60
2016,07,21,14,58,26.70
2016,07,21,14,59,26.70
2016,07,21,15,00,26.70
2016,07,21,15,01,26.90
2016,07,21,15,02,27.10
2016,07,21,15,03,27.20
2016,07,21,15,04,27.30
2016,07,21,15,05,27.30
2016,07,21,15,06,27.30
2016,07,21,15,07,27.20
2016,07,21,15,08,27.10
2016,07,21,15,09,27.00
2016,07,21,15,10,26.90
2016,07,21,15,11,26.80
2016,07,21,15,12,26.80
2016,07,21,15,13,26.90
2016,07,21,15,14,26.90
2016,07,21,15,15,26.90
2016,07,21,15,16,26.80
2016,07,21,15,17,26.70
2016,07,21,15,18,26.60
2016,07,21,15,19,26.60
2016,07,21,15,20,26.60
2016,07,21,15,21,26.60
2016,07,21,15,22,26.60
2016,07,21,15,23,26.80
2016,07,21,15,24,26.90
2016,07,21,15,25,27.10
2016,07,21,15,26,27.20
2016,07,21,15,27,27.30
2016,07,21,15,28,27.30
2016,07,21,15,29,27.30
2016,07,21,15,30,27.40
2016,07,21,15,31,27.30
2016,07,21,15,32,27.20
2016,07,21,15,33,27.20
2016,07,21,15,34,27.20
2016,07,21,15,35,27.10
2016,07,21,15,36,26.90
2016,07,21,15,37,26.80
2016,07,21,15,38,26.80
2016,07,21,15,39,26.80
2016,07,21,15,40,26.80
2016,07,21,15,41,26.80
2016,07,21,15,42,26.80
2016,07,21,15,43,26.80
2016,07,21,15,44,26.80
2016,07,21,15,45,26.80
2016,07,21,15,46,26.80
2016,07,21,15,47,26.80
2016,07,21,15,48,26.80
2016,07,21,15,49,26.80
2016,07,21,15,50,26.70
2016,07,21,15,51,26.70
2016,07,21,15,52,26.70
2016,07,21,15,53,26.80
2016,07,21,15,54,26.90
2016,07,21,15,55,27.00
2016,07,21,15,56,27.10
2016,07,21,15,57,27.10
2016,07,21,15,58,27.10
2016,07,21,15,59,27.10
2016,07,21,16,00,27.10
2016,07,21,16,01,27.10
2016,07,21,16,02,27.20
2016,07,21,16,03,27.20
2016,07,21,16,04,27.30
2016,07,21,16,05,27.30
2016,07,21,16,06,27.30
2016,07,21,16,07,27.40
2016,07,21,16,08,27.40
2016,07,21,16,09,27.50
2016,07,21,16,10,27.50
2016,07,21,16,11,27.40
2016,07,21,16,12,27.30
2016,07,21,16,13,27.10
2016,07,21,16,14,27.00
2016,07,21,16,15,26.90
2016,07,21,16,16,26.80
2016,07,21,16,17,26.70
2016,07,21,16,18,26.60
2016,07,21,16,19,26.50
2016,07,21,16,20,26.30
2016,07,21,16,21,26.30
2016,07,21,16,22,26.20
2016,07,21,16,23,26.20
2016,07,21,16,24,26.30
2016,07,21,16,25,26.30
2016,07,21,16,26,26.30
2016,07,21,16,27,26.30
2016,07,21,16,28,26.30
2016,07,21,16,29,26.30
2016,07,21,16,30,26.30
2016,07,21,16,31,26.20
2016,07,21,16,32,26.20
2016,07,21,16,33,26.20
2016,07,21,16,34,26.20
2016,07,21,16,35,26.30
2016,07,21,16,36,26.30
2016,07,21,16,37,26.40
2016,07,21,16,38,26.50
2016,07,21,16,39,26.50
2016,07,21,16,40,26.50
2016,07,21,16,41,26.40
2016,07,21,16,42,26.30
2016,07,21,16,43,26.20
2016,07,21,16,44,26.10
2016,07,21,16,45,26.10
2016,07,21,16,46,26.10
2016,07,21,16,47,26.10
2016,07,21,16,48,26.10
2016,07,21,16,49,26.10
2016,07,21,16,50,26.10
2016,07,21,16,51,26.20
2016,07,21,16,52,26.20
2016,07,21,16,53,26.20
2016,07,21,16,54,26.20
2016,07,21,16,55,26.20
2016,07,21,16,56,26.20
2016,07,21,16,57,26.30
2016,07,21,16,58,26.30
2016,07,21,16,59,26.40
2016,07,21,17,00,26.40
2016,07,21,17,01,26.50
2016,07,21,17,02,26.50
2016,07,21,17,03,26.50
2016,07,21,17,04,26.50
2016,07,21,17,05,26.50
2016,07,21,17,06,26.60
2016,07,21,17,07,26.60
2016,07,21,17,08,26.50
2016,07,21,17,09,26.50
2016,07,21,17,10,26.50
2016,07,21,17,11,26.40
2016,07,21,17,12,26.40
2016,07,21,17,13,26.40
2016,07,21,17,14,26.30
2016,07,21,17,15,26.30
2016,07,21,17,16,26.30
2016,07,21,17,17,26.40
2016,07,21,17,18,26.40
2016,07,21,17,19,26.40